Location: ???????
(56.2167°N, 38.0500°E)
Time: 04:03:12
(UTC+00:00)

USA 234 - Pass Details

Date: 19 May 2025
Orbit: 1097 x 1111 km, 123.0° (Epoch: 13 June)

Event Time Altitude Azimuth Distance (km) Brightness Sun altitude
Rises 22:25:24 0° 94° (E) 3,913 6.3 -12.7°
Reaches altitude 10° 22:27:53 10° 94° (E) 2,957 5.7 -12.6°
Maximum altitude 22:34:26 86° 7° (N) 1,111 3.3 -12.4°
Drops below altitude 10° 22:41:00 10° 280° (W) 2,969 5.4 -12.1°
Sets 22:43:29 0° 280° (W) 3,929 6.1 -12.0°
